Location: Harwich
(41.6860°N, 70.0760°W)
Time: 09:53:38
(UTC-04:00)

Cosmos 2228 - Visible Passes

Search period start: 01 August 2014 00:00
Search period end: 11 August 2014 00:00
Orbit: 596 x 625 km, 82.5° (Epoch: 31 July)

Date Brightness Start Highest point End Pass type
(mag) Time Alt. Az. Time Alt. Az. Time Alt. Az.
01 Aug 5.1 00:22:29 21° WNW 00:22:29 21° WNW 00:25:17 10° NNW visible
01 Aug 3.9 23:00:01 40° NE 23:00:01 40° NE 23:03:03 10° NNE visible
02 Aug 5.6 00:36:59 13° WNW 00:36:59 13° WNW 00:38:51 10° NW visible
02 Aug 3.6 23:14:29 54° N 23:14:29 54° N 23:17:51 10° N visible
03 Aug 5.1 21:51:59 14° ENE 21:51:59 14° ENE 21:53:24 10° NE visible
03 Aug 4.1 23:28:56 41° NW 23:28:56 41° NW 23:32:27 10° N visible
04 Aug 4.5 22:06:25 23° ENE 22:06:25 23° ENE 22:09:05 10° NE visible
04 Aug 4.8 23:43:22 26° WNW 23:43:22 26° WNW 23:46:46 10° NNW visible
05 Aug 3.7 22:20:49 40° ENE 22:20:49 40° ENE 22:24:14 10° NNE visible
05 Aug 5.4 23:57:47 15° WNW 23:58:04 16° WNW 00:00:40 10° NNW visible
06 Aug 3.1 22:35:12 70° NNE 22:35:12 70° NNE 22:39:06 10° N visible
07 Aug 5.1 21:12:36 12° E 21:12:36 12° E 21:13:58 10° ENE visible
07 Aug 3.5 22:49:34 56° WNW 22:49:34 56° WNW 22:53:46 10° N visible
08 Aug 4.4 21:26:56 21° E 21:26:56 21° E 21:30:04 10° NE visible
08 Aug 4.5 23:03:53 31° W 23:04:19 31° WNW 23:08:12 10° NNW visible
09 Aug 3.6 21:41:13 36° E 21:41:23 36° E 21:45:21 10° NNE visible
09 Aug 5.3 23:18:10 17° W 23:19:12 19° WNW 23:22:18 10° NNW visible
10 Aug 2.9 21:55:28 58° SE 21:56:00 65° E 22:00:19 10° NNE visible
10 Aug 5.9 23:32:56 10° W 23:34:11 11° WNW 23:35:27 10° NW visible
